KUIPER-00110 (65148 NORAD) Tracking and Keplerian Element Data

This shows tracking and keplerian element data for the satellite.

Feedback or suggestion? Click here.




ElementValue
Catalog65148
NameKUIPER-00110
Epoch Orbit238
Epoch Day354.00002315
Epoch Year2025
RAAN160.53
Inclination51.8973
Eccentricity0.0002499
Argument of Perigee239.5856
Mean Anonmoly38.0177
Mean Motion14.79977123
Decay Rate8.693E-05
L11 65148U 25171S 25354.00002315 .00008693 00000+0 11666-2 0 9997
L22 65148 51.8973 160.5300 0002499 239.5856 38.0177 14.79977123 2385



Live tracking and technical data element details for KUIPER-00110 (NORAD 65148). KUIPER-00110 can be tracked NOW for your location showing map with azimuth and elevation plus other details from your city location.







IsCatalogInMostPopularTable: catalog: 65148, numindb: 5
Update: records affected: 1



GetName: 65148 KUIPER-00110

Hit Count: updated at: Mon, 20 Apr 2026 10:49:57 GMT